Location: Cerro Villa Heights
(33.8267°N, 117.8042°W)
Time: 18:13:59
(UTC+00:00)

USA 229 - Pass Details

Date: 05 August 2024
Orbit: 890 x 1322 km, 63.4° (Epoch: 31 August)

Event Time Altitude Azimuth Distance (km) Brightness Sun altitude
Rises 12:04:10 0° 328° (NNW) 4,074 6.7 -12.5°
Reaches altitude 10° 12:06:50 10° 328° (NNW) 3,162 6.2 -12.0°
Maximum altitude 12:14:35 85° 242° (WSW) 1,290 4.1 -10.6°
Drops below altitude 10° 12:22:47 10° 154° (SSE) 3,336 6.3 -9.1°
Sets 12:25:39 0° 154° (SSE) 4,308 6.9 -8.6°
